STARLINK-3115 (49447 NORAD) Tracking and Keplerian Element Data

This shows tracking and keplerian element data for the satellite.

Feedback or suggestion? Click here.




ElementValue
Catalog49447
NameSTARLINK-3115
Epoch Orbit370
Epoch Day15.91668981
Epoch Year2022
RAAN180.2395
Inclination53.2173
Eccentricity0.0001724
Argument of Perigee35.7181
Mean Anonmoly86.3217
Mean Motion15.54344477
Decay Rate-0.00649921
L11 49447U 21104AR 22015.91668981 -.00649921 00000+0 -10572-1 0 9992
L22 49447 53.2173 180.2395 0001724 35.7181 86.3217 15.54344477 3709

Live tracking and technical data element details for STARLINK-3115 (NORAD 49447). STARLINK-3115 can be tracked NOW for your location showing map with azimuth and elevation plus other details from your city location.

Track the satellite on the map from your city or location and see movement details for azimuth, elevation, latitude, longitude, range, height, and movement on the map or in text.







IsCatalogInMostPopularTable: catalog: 49447, numindb: 7
Update: records affected: 1



GetName: 49447 STARLINK-3115

Hit Count: updated at: Thu, 20 Jan 2022 18:14:09 GMT